Location: Karcze
(52.0945°N, 22.4786°E)
Time: 22:38:21
(UTC+00:00)

Transit 4A - Pass Details

Date: 31 July 2021
Orbit: 871 x 974 km, 66.8° (Epoch: 18 September)

Event Time Altitude Azimuth Distance (km) Brightness Sun altitude
Exits shadow 20:54:57 12° 106° (ESE) 2,400 9.7 -16.5°
Maximum altitude 20:55:24 12° 101° (ESE) 2,392 9.7 -16.5°
Drops below altitude 10° 20:57:28 10° 80° (E) 2,530 10.0 -16.6°
Sets 21:01:41 0° 51° (NE) 3,469 11.1 -16.9°
